sat.trackr.live / text

‹ back to catalog

TJS-20

NORAD 66142 · 2025-238A

PAYLOAD ACTIVE UNKNOWN

§ Identity

Operator
Country
PRC
Launch date
2025-10-23
Launch site
WSC
Launch vehicle
Mass (kg)
RCS (m²)

Purposes: comms

External: N2YO · Heavens-Above · Gunter

§ Orbital elements

Epoch: 2026-09-20T03:31:56.401248Z

Period
1,436.11 min
Inclination
5.2656°
Eccentricity
0.0003248
Mean motion
1.00271159 rev/d
Perigee alt
35,773.1 km
Apogee alt
35,800.5 km
Semi-major
42,164.9 km
B*
0.0000e+0
RAAN
299.2240°
Arg perigee
237.1732°
Mean anomaly
298.0111°
Rev number
328

§ Raw data

TJS-201 66142U 25238A   26263.14718057  .00000019  00000+0  00000+0 0  99992 66142   5.2656 299.2240 0003248 237.1732 298.0111  1.00271159  3286

JSON: /api/v1/satellites/66142 · /tle

For live sub-satellite position, see the globe view (requires WebGL).

§ Visibility from observer

Set your observer location to see the next 7 days of passes ≥ 10°. The values pass through the URL so the page stays shareable.

No JS? Fill the form by hand. The geolocation button needs JavaScript.